Regional Weather Roundup
Issued by NWS Northern Indiana

Home | Current Version | Previous Version | Graphics & Text | Print | Product List | Glossary On
Versions: 1 2 3 4 5 6 7 8 9 10 11 12 13 14 15 16 17 18 19 20 21 22 23 24 25 26 27 28 29 30 31 32 33 34 35 36 37 38 39 40 41 42 43 44 45 46 47 48 49 50
000
ASUS43 KIWX 231500
RWRIWX

KIWX WEATHER ROUNDUP
NATIONAL WEATHER SERVICE NORTHERN INDIANA
1100 AM EDT THU OCT 23 2014

NOTE: "FAIR" INDICATES FEW OR NO CLOUDS BELOW 12,000 FEET WITH NO
SIGNIFICANT WEATHER AND/OR OBSTRUCTIONS TO VISIBILITY.

* THESE STATIONS ARE NOT UNDER NWS QUALITY CONTROL. THEY ALSO MAY NOT
  REPORT WEATHER SUCH AS PRECIPITATION OR FOG.

INZ001>027-231600-
NORTHERN INDIANA

CITY           SKY/WX    TMP DP  RH WIND       PRES   REMARKS
GARY*          MOSUNNY   48  43  81 S9        30.24S
SOUTH BEND     SUNNY     47  42  83 S8        30.26S
ELKHART*       MOSUNNY   41  41 100 S5        30.26S FOG
GOSHEN         MOSUNNY   44  42  93 SW8       30.25F FOG
ANGOLA*          N/A     43  41  93 CALM      30.25S
FORT WAYNE     PTSUNNY   44  42  93 SW3       30.27S

$$
INZ028>050-231600-
CENTRAL INDIANA

CITY           SKY/WX    TMP DP  RH WIND       PRES   REMARKS
LAFAYETTE      MOSUNNY   48  43  82 VRB6      30.25F
KOKOMO*        SUNNY     46 N/A N/A SW10      30.26S
MUNCIE*        SUNNY     50  41  71 SW5       30.26R
INDIANAPOLIS   MOSUNNY   48  42  80 SW5       30.25S

$$
MIZ043>046-050>051-056>058-064>065-071>073-077>080-231600-
SOUTHWEST LOWER MICHIGAN

CITY           SKY/WX    TMP DP  RH WIND       PRES   REMARKS
BATTLE CREEK   SUNNY     42  40  92 SW8       30.25S
BENTON HARBOR  SUNNY     44  41  89 S7        30.24S FOG
COLDWATER*     CLOUDY    43  42  97 W5        30.25S FOG
HILLSDALE*     SUNNY     46  46  99 W6        30.24S
HOLLAND        PTSUNNY   43  41  93 SE5       30.25S FOG
GRAND RAPIDS   PTSUNNY   43  41  93 VRB6      30.25S FOG
KALAMAZOO      MOSUNNY   41  39  93 SW6       30.25S FOG
STURGIS*       CLOUDY    39  39 100 SW3       30.25S FOG
THREE RIVERS*  FOG       40  40  99 S5        30.26S VSB 1/2

$$
OHZ001>008-015>018-024>025-231600-
NORTHWEST OHIO

CITY           SKY/WX    TMP DP  RH WIND       PRES   REMARKS
DEFIANCE       MOSUNNY   46  42  86 CALM      30.27S
FINDLAY        FOG       42  40  92 CALM      30.26R VSB 1/4
TOLEDO EXPRESS CLOUDY    45  40  82 W3        30.26S
TOLEDO METCALF SUNNY     49  39  68 CALM      30.26S
LIMA           SUNNY     45  41  86 W5        30.26R

$$
AND FOR LAKE MICHIGAN COASTAL AND OPEN LAKE BUOY OBSERVATIONS

STATION/POSITION TEMP    WIND        PRES    VSBY  WAVE
                 AIR SEA DIR/SP/G                  HT/PER
                 (F)     (DEG/KT/KT) (MB)    (MI)  (FT/S)
CALUMET HARBOR    46     190/  9/ 12 1022.4S
MICHIGAN CITY     44     150/  9/ 11   N/A
SAINT JOSEPH      41                 1024.0F
SOUTH LAKE BUOY   51 54  200/ 12/ 14 1023.6R         2/ 4
SAINT JOSEPH CG                      1024.6      6   1

$$
&&



USA.gov is the U.S. government's official web portal to all federal, state and local government web resources and services.